Regional Weather Roundup
Issued by NWS Wakefield, VA

Home | Current Version | Previous Version | Text Only | Print | Product List | Glossary On
Versions: 1 2 3 4 5 6 7 8 9 10 11 12 13 14 15 16 17 18 19 20 21 22 23 24 25 26 27 28
000
ASUS41 KAKQ 212115
RWRAKQ

REGIONAL WEATHER ROUNDUP
NATIONAL WEATHER SERVICE WAKEFIELD VA
500 PM EDT THU SEP 21 2017

Note: "fair" indicates few or no clouds below 12,000 feet with no
significant weather and/or obstructions to visibility. * = Denotes
station may not report precipitation (e.g., rain,snow,etc.),
thunder or fog.

VAZ042-051-052>054-056-212200-
NORTHERN VIRGINIA

CITY           SKY/WX    TMP DP  RH WIND       PRES   REMARKS
WASH NATIONAL  MOSUNNY   85  65  51 N5        30.01S
DULLES         PTSUNNY   85  64  49 VRB5      30.02F
FORT BELVOIR   MOSUNNY   84  64  51 N5        30.01F
QUANTICO       MOSUNNY   84  66  54 CALM      30.01S
FREDERICKSBRG* MOSUNNY   85  64  49 N5        30.00S
STAFFORD*      MOSUNNY   83  62  48 N8        30.05S
WARRENTON      SUNNY     85  58  39 NW7       30.02S
CULPEPER*      SUNNY     84  63  49 N5        30.03S
MANASSAS*      SUNNY     85  63  47 NW9       30.02S
LEESBURG*      SUNNY     82  64  54 N5        30.04S
WINCHESTER     SUNNY     81  61  50 NE5       30.04S
FRONT ROYAL*   PTCLDY    82  63  51 E5        30.03F
LURAY*         PTCLDY    86  61  42 NE7       30.04S
$$

VAZ048-049-060>072-079>083-212200-
CENTRAL AND SOUTH CENTRAL VIRGINIA

CITY           SKY/WX    TMP DP  RH WIND       PRES   REMARKS
RICHMOND       MOSUNNY   88  62  41 N10       30.00S
CHESTERFIELD*  NOT AVBL
PETERSBURG*    MOSUNNY   86  58  38 N5        30.00S
HANOVER        SUNNY     86  63  45 VRB3      30.01F
TAPPAHANNOCK*  SUNNY     87  50  27 NE6       30.01F
QUINTON*       FAIR      86  64  48 CALM      29.99S
CHARLOTTSVILLE SUNNY     86  62  44 N3        30.03S
GORDONSVILLE*  CLEAR     85  64  48 CALM      30.02S
ORANGE*        SUNNY     82  61  47 N3        30.02S
LOUISA*        MOSUNNY   84  63  48 NE5       30.02S
BUMPASS*       FAIR      84  66  54 NW6       30.02S
FARMVILLE*     MOSUNNY   89  63  41 NE7       30.01S
CREWE*         FAIR      85  62  46 N3        30.02S
FORT PICKETT*  MOCLDY    85  62  45 CALM      30.02S
CHASE CITY*    MOCLDY    85  64  47 CALM      30.02S
CLARKSVILLE*   FAIR      86  61  42 NE3       30.02R
SOUTH HILL*    SUNNY     83  65  53 CALM      30.07S
LAWRENCEVILLE* FAIR      85  63  48 MISG      30.01S
EMPORIA*       MOSUNNY   84  63  48 N3        30.01F
$$

VAZ088>098-212200-
SOUTHEAST VIRGINIA

CITY           SKY/WX    TMP DP  RH WIND       PRES   REMARKS
NORFOLK        SUNNY     82  68  62 NE6       29.99S
VIRGINIA BEACH MOSUNNY   81  64  56 E6        29.98F
NORFOLK NAVAL  MOSUNNY   83  65  54 NE6       30.01S
WEST POINT*    SUNNY     84  63  48 N5        30.01S
SALUDA*        FAIR      82  70  66 CALM      30.00S
NEWPORT NEWS   NOT AVBL
LANGLEY AFB    MOSUNNY   82  68  62 E6        29.99F
FORT EUSTIS    SUNNY     90  69  49 NE6       29.97S HX  95
WILLIAMSBURG*  SUNNY     88  70  55 E6        30.00S
HR EXEC AP*    FAIR      85  68  56 NE6       30.00R
FRANKLIN*      SUNNY     85  63  46 NE8       30.00R
US460-WAKEFLD  SUNNY     84  68  58 CALM      29.99F
$$

VAZ020-022-025-037-045-212200-
WEST CENTRAL AND SOUTHWEST VIRGINIA

CITY           SKY/WX    TMP DP  RH WIND       PRES   REMARKS
STAUNTON*      SUNNY     84  58  40 NW7       30.07F
WAYNESBORO*    CLEAR     83  60  45 N6        30.08S
HOT SPRINGS VA PTSUNNY   72  54  54 CALM      30.21S
LYNCHBURG      MOSUNNY   84  61  45 E6        30.05S
DANVILLE       SUNNY     86  66  51 NE8       30.03R
SOUTH BOSTON*  FAIR      87  62  42 E3        30.02S
MARTINSVILLE   SUNNY     84  65  52 NE8       30.07R
ROANOKE        MOSUNNY   85  63  47 S5        30.06F
BLACKSBURG     MOSUNNY   82  64  54 NE3       30.13F
DUBLIN*        CLOUDY    82  63  52 NE3       30.12S
MARION*        CLOUDY    81  57  43 N5        30.15F
HILLSVILLE*    PTSUNNY   68  62  81 CALM      30.14F
RICHLANDS*     CLOUDY    80  59  49 NW7       30.14F
WISE*          SUNNY     79  59  50 NE6       30.16S
ABINGDON*      MOSUNNY   83  62  49 CALM      30.10F
$$

MDZ021>025-VAZ099-100-212200-
SOUTHERN MARYLAND AND THE DELMARVA PENINSULA

CITY           SKY/WX    TMP DP  RH WIND       PRES   REMARKS
PATUXENT RIVER MOSUNNY   84  64  50 N8        30.00S
BAY BRIDGE APT SUNNY     82  64  54 N5        30.00S
LEONARDTOWN    SUNNY     81  64  57 N5        30.02S
DOVER          MOSUNNY   84  82  95 NW7       29.99S HX 101
GEORGETOWN     MOSUNNY   86  62  44 N7        29.99S
EASTON         MOSUNNY   84  64  51 NW6       30.03S
CAMBRIDGE      MOSUNNY   82  66  57 NW9       30.00R
SALISBURY      SUNNY     83  64  52 NE7       29.98S
OCEAN CITY     SUNNY     77  68  73 E8        30.00S
WALLOPS ISLAND SUNNY     79  69  71 SE7       30.00S
ACCOMACK*      CLOUDY    81  69  67 CALM      30.00S
$$

NCZ012>017-030>032-212200-
NORTH CENTRAL AND EASTERN NORTH CAROLINA

CITY           SKY/WX    TMP DP  RH WIND       PRES   REMARKS
ROANOKE RAPIDS FAIR      86  63  45 N8        30.00F
RALEIGH        TSTM      74  68  81 CALM      30.02R
ELIZABETH CITY SUNNY     82  70  66 E9        29.99R
AHOSKIE*         N/A     83  64  52 N3        30.00S
EDENTON*       SUNNY     87  67  50 CALM      29.99S
CURRITUCK*     SUNNY     80  65  61 NE7       30.01R
KILL DEVIL HLS SUNNY     76  66  70 CALM      29.99S
MANTEO         SUNNY     79  67  66 E12       30.00S
CAPE HATTERAS  SUNNY     84  70  62 VRB5      29.99S
TARBORO*       NOT AVBL
GOLDSBORO      CLOUDY    75  75  99 NW5       29.98S
WASHINGTON     SUNNY     84  66  53 CALM      29.98F
GREENVILLE     MOSUNNY   86  68  54 N3        30.00F
NEW BERN       CLOUDY    74  69  85 CALM      29.99F
WILMINGTON     PTSUNNY   83  72  69 CALM      29.98S
$$

VAZ048-212200-
ELSEWHERE

CITY           SKY/WX    TMP DP  RH WIND       PRES   REMARKS
HARRISBURG PA  PTSUNNY   85  65  51 W6        30.01R
BALTIMORE      MOSUNNY   86  64  47 NW9       30.00S
ANNAPOLIS      SUNNY     83  72  69 SE8       30.00S
ANDREWS AFB    MOSUNNY   84  63  50 N10       30.00F
PHILADELPHIA   PTSUNNY   87  61  41 N10G21    29.98S
HENDERSON NC   CLOUDY    83  60  46 E6        30.02S
GREENSBORO     MOSUNNY   86  65  49 NE9       30.02F
ROCKY MOUNT    CLOUDY    77  71  82 W3        30.00F
$$

VAZ100-212200-
MARINE

STATION/POSITION TIME  TEMP    WIND        PRES    WAVE   SWELL
                       AIR SEA DIR/SP/G            HT/PER HT/PER
                 (UTC) (F)     (DEG/KT/KT) (MB)    (FT/S) (FT/S)
BRANDYWINE LGT   2036   76     160/  9/ 10 1015.8R
CAPE MAY NJ      2036   77 75  140/  8/ 10 1015.1R
LEWES DE         2036   78 74  120/  6/  7 1015.4R
15NM E FENWICK I 2050   74 72  360/  6/  8 1016.1S   6/ 9   5/ 9
OCEAN-CITY-INLET 2036   76 76  130/  6/  8 1016.2R
WACHAPREAGUE VA  2036   79 78  100/  3/  5 1015.9F
THOMAS POINT MD  2100   80 76   CALM  /  2   N/A
GOOSES REEF MD   2100   80 76   10/  2/  4 1016.7    1
COVE POINT MD    2036   78     350/  7/  7 1016.7F
SOLOMONS ISLAND  2036   81 78   10/  8/  9 1015.6S
BISHOPS HEAD MD  2036   79 78  290/  9/ 11 1016.0R
PINEY POINT MD   2048          320/  5/  5   N/A
POTOMAC MD       2100   81 78   CALM  /  4 1015.2    0
CAMBRIDGE MD     2036   85 78              1016.8R
LEWISETTA VA     2036   81 76  310/  1/  2 1015.9S
RAPPAHANNOCK LGT 2036          330/  8/  9 1016.4S
STINGRAY PT      2100   80 77   50/  4/  6 1016.2    0
YORK RVR RNG VA  2036   78     150/  5/  5 1016.3F
YORKTOWN VA      2036   80 77  110/  5/  7 1015.6R
JAMESTOWN VA     2100      79                N/A
DOMINION TERM VA 2036   80     100/  5/  8 1016.0S
KIPTOPEKE VA     2036      77  310/  5/  6   N/A
CHES BAY BRIDGE  2036   77 77   60/  4/  5 1015.7S
CAPE HENRY VA    2036   79      70/  3/  3   N/A
WILLOUBY STN VA  2048           80/  5/  5   N/A
S CRANEY ISL VA  2036   81      50/  5/  7 1015.5S
CAPE HENRY BUOY  2030      79                N/A     3/11   2/11
1ST LANDING BUOY 2050   78                 1015.5F
64NM E OF VA BCH 2050   72 72   10/ 10/ 10 1015.9F   6/ 9   7/ 9
DUCK PIER NC     2036   76 77   60/ 10/ 11 1015.4S
44100 DUCK FRF   2035      76                N/A     5/11   3/11
44056 DUCK FRF   2030      76                N/A     4/11   2/11
OREGON INLET NC  2048           30/  7/ 11   N/A
HATTERAS NC      2036   81 78   70/  5/  7 1015.4S
DIAMOND SHLS NC  2050   78 79   30/  4/  6 1015.4S   5/10   5/10
CAPE LOOKOUT NC  2100   80     150/  4/  4 1014.6F
$$




USA.gov is the U.S. government's official web portal to all federal, state and local government web resources and services.